Flag for U.S.A. Weather past 2 weeks in Rochester, New York, U.S.A.

Now
42 °F

Partly sunny.


Feels Like: 35 °F
Forecast: 37 / 48 °F
Wind: 13 mph from Northeast

Location: Greater Rochester International Airport


UV Index: 5 (Moderate)

Visibility: 10 mi


Pressure: 30.47 "Hg

Humidity: 68%

Dew point: 32 °F

Location of RochesterLocation

Historic Weather in Rochester

°F

Rochester temperature yesterday

Maximum temperature yesterday: 63 °F (at 2:54 PM)
Minimum temperature yesterday: 42 °F (at 6:54 AM)
Average temperature yesterday: 49 °F

Past Weeks' High & Low Weather Summary

 TemperatureHumidityPressure
High82 °F (Apr 13, 3:54 PM)100% (Apr 8, 2:54 AM)30.64 "Hg (Apr 8, 2:54 AM)
Low25 °F (Apr 16, 2:54 AM)20% (Apr 10, 4:54 PM)29.26 "Hg (Apr 8, 6:54 AM)
Average46 °F62%29.99 "Hg
* Reported Apr 4 9:54 AM — Apr 19 9:54 AM, Rochester, Weather by CustomWeather, © 2014

Note: Actual official high and low records may vary slightly from our data, if they occured in-between our weather recording intervals... More about our weather records

Advertising

Historic Weather Conditions — Data for Previous 24 hours

 ConditionsComfort  
Time TempWeatherWind HumidityBarometerVisibility
9:54 AM
Apr 19
42 °FPassing clouds.14 mph68%30.45 "Hg10 mi
8:54 AM41 °FPassing clouds.10 mph70%30.42 "Hg10 mi
7:54 AM38 °FSunny.10 mph73%30.40 "Hg10 mi
6:54 AM36 °FClear.7 mph75%30.38 "Hg10 mi
5:54 AM35 °FClear.5 mph75%30.35 "Hg10 mi
4:54 AM36 °FPassing clouds.6 mph73%30.34 "Hg10 mi
3:54 AM37 °FPassing clouds.5 mph73%30.32 "Hg10 mi
2:54 AM38 °FPassing clouds.6 mph70%30.31 "Hg10 mi
1:54 AM40 °FPassing clouds.8 mph73%30.31 "Hg10 mi
12:54 AM44 °FMostly cloudy.13 mph82%30.30 "Hg8 mi
11:54 PM
Apr 18
44 °FPassing clouds.No wind82%30.28 "Hg8 mi
10:54 PM45 °FMostly cloudy.6 mph82%30.27 "Hg10 mi
9:54 PM43 °FPassing clouds.6 mph82%30.26 "Hg10 mi
9:02 PM45 °FPassing clouds.3 mph76%30.24 "Hg10 mi
8:54 PM44 °FPartly sunny.5 mph79%30.26 "Hg10 mi
7:54 PM45 °FCloudy.5 mph76%30.25 "Hg10 mi
6:54 PM51 °FBroken clouds.10 mph52%30.24 "Hg10 mi
5:54 PM54 °FPartly sunny.10 mph45%30.22 "Hg10 mi
4:54 PM57 °FBroken clouds.17 mph42%30.22 "Hg10 mi
3:54 PM60 °FScattered clouds.14 mph41%30.21 "Hg10 mi
2:54 PM63 °FPartly sunny.10 mph38%30.22 "Hg10 mi
1:54 PM61 °FBroken clouds.3 mph38%30.24 "Hg10 mi
12:54 PM59 °FMostly cloudy.3 mph41%30.27 "Hg10 mi
11:54 AM54 °FMostly cloudy.5 mph45%30.29 "Hg10 mi
Weather by CustomWeather, © 2014

See weather overview